Tracking 26894 objects as of 2-Feb-2023
HD Live streaming from Space Station
objects crossing your sky now

NOAA 17 DEB

Track NOAA 17 DEB now!
10-day predictions


NORAD ID: 48174
Int'l Code: 2002-032Q
Perigee: 715.6 km
Apogee: 791.5 km
Inclination: 98.9 °
Period: 99.7 minutes
Semi major axis: 7124 km
RCS: Unknown
Launch date: June 24, 2002
Source: United States (US)
Launch site: AIR FORCE WESTERN TEST RANGE (AFWTR)

Note: This is SATELLITE DEBRIS
Your satellite tracking list
Your tracking list is empty




NASA's NSSDC Master Catalog

Two Line Element Set (TLE):
1 48174U 02032P   23032.39824008  .00007433  00000-0  21642-2 0  9999
2 48174  98.8709  13.0286 0053236 141.2126 219.2903 14.43666729 98778
Source of the keplerian elements: AFSPC